{"data":{"norad_id":68995,"intl_designator":"2026-100R","name":"ICEYE-X78","alt_names":[],"object_type":"PAYLOAD","status":"ACTIVE","operator":null,"country":"POL","launch_date":"2026-05-03","launch_site_code":"AFWTR","launch_vehicle":null,"mission":null,"orbit_class":"UNKNOWN","rcs_meters":null,"size_class":null,"mass_kg":null,"dimensions":null,"purposes":[],"wikipedia_slug":null,"has_3d_model":false,"image_url":null,"decayed_at":null,"tle_current":{"epoch":"2026-09-20T04:26:05.017056Z","epoch_age_seconds":46629,"freshness":"FRESH","line1":"1 68995U 26100R   26263.18478029  .00000658  00000+0  70554-4 0  9997","line2":"2 68995  97.7234 158.8184 0002934 139.7898 220.3538 14.91902715 20867","mean_motion":14.91902715,"eccentricity":0.0002934,"inclination_deg":97.7234,"raan_deg":158.8184,"arg_perigee_deg":139.7898,"mean_anomaly_deg":220.3538,"bstar":7.0554e-5,"rev_number":2086,"period_min":96.521038907017,"perigee_km":589.95802257938,"apogee_km":594.04810076757,"semimajor_km":6970.1400616735,"source":"CELESTRAK","updated_at":"2026-09-20T09:00:24.623684Z"}}}